Location: Newark
(52.2090°N, 4.1550°W)
Time: 04:36:16
(UTC+00:00)

Explorer 7 - Pass Details

Date: 23 September 2019
Orbit: 485 x 680 km, 50.3° (Epoch: 20 October)

Event Time Altitude Azimuth Distance (km) Brightness Sun altitude
Rises 02:01:22 0° 276° (W) 2,928 - -32.7°
Reaches altitude 10° 02:03:40 10° 273° (W) 2,045 - -32.5°
Maximum altitude 02:08:20 59° 195° (SSW) 766 - -32.1°
Drops below altitude 10° 02:13:09 10° 116° (ESE) 2,110 - -31.6°
Exits shadow 02:14:03 - 114° (ESE) 2,452 10.2 -31.5°
Sets 02:15:33 0° 113° (ESE) 3,030 10.8 -31.4°
